This demonstration page uses our WeatherBlox Daily Observations layout. Learn more.

Left ArrowRight Arrow

Hourly Observations for April 18, 2017

Temp ( °F °C ) Dew Point ( °F °C ) Humidity (%) Winds ( mph kmh ) Pressure ( in mb ) Visibility ( mi km ) Precip ( " mm )
12:15 am 00:15 Clear 61 16 43 6 52 52 N 6 9 30.18 1022 10 16 N/A
12:35 am 00:35 Clear 61 16 41 5 48 48 N 5 7 30.18 1022 10 16 N/A
12:55 am 00:55 Clear 63 17 39 4 42 42 N 7 11 30.18 1022 10 16 N/A
1:15 am 01:15 Clear 61 16 39 4 45 45 N 6 9 30.21 1023 10 16 N/A
1:35 am 01:35 Clear 61 16 37 3 42 42 N 6 9 30.21 1023 10 16 N/A
1:55 am 01:55 Clear 61 16 39 4 45 45 N 6 9 30.21 1023 10 16 N/A
2:15 am 02:15 Clear 59 15 41 5 51 51 N 6 9 30.21 1023 10 16 N/A
2:35 am 02:35 Clear 59 15 41 5 51 51 N 6 9 30.21 1023 10 16 N/A
2:55 am 02:55 Clear 55 13 43 6 63 63 N 7 11 30.21 1023 10 16 N/A
3:15 am 03:15 Clear 55 13 43 6 63 63 NNE 6 9 30.21 1023 10 16 N/A
3:35 am 03:35 Clear 55 13 43 6 63 63 NNE 6 9 30.24 1024 10 16 N/A
3:55 am 03:55 Clear 55 13 41 5 59 59 N 6 9 30.24 1024 10 16 N/A
4:15 am 04:15 Clear 55 13 41 5 59 59 NNE 6 9 30.24 1024 10 16 N/A
4:35 am 04:35 Clear 54 12 41 5 63 63 NNE 6 9 30.24 1024 10 16 N/A
4:55 am 04:55 Clear 55 13 41 5 59 59 NNE 6 9 30.27 1025 10 16 N/A
5:15 am 05:15 Clear 54 12 41 5 63 63 NNE 6 9 30.30 1026 10 16 N/A
5:35 am 05:35 Clear 54 12 41 5 63 63 NNE 7 11 30.30 1026 10 16 N/A
5:55 am 05:55 Clear 54 12 41 5 63 63 NNE 7 11 30.30 1026 10 16 N/A
6:15 am 06:15 Clear 54 12 41 5 63 63 NNE 6 9 30.33 1027 10 16 N/A
6:35 am 06:35 Sunny 54 12 41 5 63 63 N 9 15 30.33 1027 10 16 N/A
6:55 am 06:55 Sunny 54 12 39 4 58 58 NNE 9 15 30.33 1027 10 16 N/A
7:15 am 07:15 Sunny 54 12 39 4 58 58 NNE 6 9 30.36 1028 10 16 N/A
7:35 am 07:35 Sunny 55 13 39 4 55 55 NE 6 9 30.33 1027 10 16 N/A
7:55 am 07:55 Sunny 55 13 39 4 55 55 NNE 5 7 30.33 1027 10 16 N/A
8:15 am 08:15 Sunny 59 15 41 5 51 51 NNE 5 7 30.33 1027 10 16 N/A
8:35 am 08:35 Sunny 59 15 39 4 48 48 NE 3 6 30.36 1028 10 16 N/A
8:55 am 08:55 Sunny 61 16 39 4 45 45 NE 5 7 30.36 1028 10 16 N/A
9:15 am 09:15 Sunny 61 16 41 5 48 48 N N/A 30.36 1028 10 16 N/A
9:35 am 09:35 Sunny 61 16 41 5 48 48 NNE 5 7 30.36 1028 10 16 N/A
9:55 am 09:55 Sunny 63 17 41 5 45 45 NE 6 9 30.36 1028 10 16 N/A
10:15 am 10:15 Sunny 63 17 41 5 45 45 E 3 6 30.36 1028 10 16 N/A
10:35 am 10:35 Sunny 64 18 43 6 46 46 N N/A 30.36 1028 10 16 N/A
10:55 am 10:55 Sunny 64 18 41 5 43 43 ENE 3 6 30.36 1028 10 16 N/A
11:15 am 11:15 Sunny 64 18 41 5 43 43 N N/A 30.36 1028 10 16 N/A
11:35 am 11:35 Sunny 68 20 41 5 38 38 NE 3 6 30.36 1028 10 16 N/A
11:55 am 11:55 Sunny 68 20 41 5 38 38 N N/A 30.36 1028 10 16 N/A
12:15 pm 12:15 Sunny 68 20 39 4 35 35 E 3 6 30.36 1028 10 16 N/A
12:35 pm 12:35 Sunny 70 21 43 6 38 38 N N/A 30.36 1028 10 16 N/A
12:55 pm 12:55 Sunny 70 21 41 5 35 35 NE 5 7 30.33 1027 10 16 N/A
1:15 pm 13:15 Sunny 70 21 37 3 31 31 E 3 6 30.33 1027 10 16 N/A
1:35 pm 13:35 Sunny 70 21 41 5 35 35 NE 8 13 30.33 1027 10 16 N/A
1:55 pm 13:55 Sunny 72 22 37 3 29 29 SE 5 7 30.33 1027 10 16 N/A
2:15 pm 14:15 Sunny 72 22 37 3 29 29 N 3 6 30.33 1027 10 16 N/A
2:35 pm 14:35 Sunny 72 22 37 3 29 29 W 3 6 30.33 1027 10 16 N/A
2:55 pm 14:55 Sunny 72 22 37 3 29 29 N N/A 30.30 1026 10 16 N/A
3:15 pm 15:15 Sunny 72 22 37 3 29 29 SE 3 6 30.30 1026 10 16 N/A
3:35 pm 15:35 Sunny 72 22 37 3 29 29 WNW 3 6 30.30 1026 10 16 N/A
3:55 pm 15:55 Sunny 73 23 41 5 31 31 N N/A 30.30 1026 10 16 N/A
4:15 pm 16:15 Sunny 73 23 37 3 27 27 S 6 9 30.30 1026 10 16 N/A
4:35 pm 16:35 Sunny 73 23 39 4 29 29 S 5 7 30.30 1026 10 16 N/A
4:55 pm 16:55 Sunny 73 23 39 4 29 29 S 5 7 30.30 1026 10 16 N/A
5:15 pm 17:15 Sunny 73 23 41 5 31 31 SSW 6 9 30.30 1026 10 16 N/A
5:35 pm 17:35 Sunny 73 23 41 5 31 31 N N/A 30.30 1026 10 16 N/A
5:55 pm 17:55 Sunny 73 23 41 5 31 31 ESE 6 9 30.30 1026 10 16 N/A
6:15 pm 18:15 Sunny 73 23 41 5 31 31 SSE 6 9 30.30 1026 10 16 N/A
6:35 pm 18:35 Sunny 72 22 41 5 33 33 SE 7 11 30.30 1026 10 16 N/A
6:55 pm 18:55 Sunny 72 22 43 6 36 36 S 12 19 30.30 1026 10 16 N/A
7:15 pm 19:15 Sunny 72 22 43 6 36 36 SE 7 11 30.30 1026 10 16 N/A
7:35 pm 19:35 Sunny 70 21 43 6 38 38 SSE 13 20 30.30 1026 10 16 N/A
7:55 pm 19:55 Clear 68 20 41 5 38 38 SSE 9 15 30.30 1026 10 16 N/A
8:15 pm 20:15 Clear 68 20 43 6 40 40 SSE 13 20 30.33 1027 10 16 N/A
8:35 pm 20:35 Clear 68 20 45 7 43 43 S 12 19 30.33 1027 10 16 N/A
8:55 pm 20:55 Clear 64 18 45 7 49 49 S 16 26 30.36 1028 10 16 N/A
9:15 pm 21:15 Clear 64 18 46 8 52 52 SSE 9 15 30.36 1028 10 16 N/A
9:35 pm 21:35 Clear 63 17 46 8 56 56 S 14 22 30.36 1028 10 16 N/A
9:55 pm 21:55 Clear 63 17 46 8 56 56 S 16 26 30.36 1028 10 16 N/A
10:15 pm 22:15 Clear 61 16 48 9 63 63 SSE 10 17 30.39 1029 10 16 N/A
10:35 pm 22:35 Clear 61 16 46 8 59 59 SSE 7 11 30.39 1029 10 16 N/A
10:55 pm 22:55 Clear 61 16 46 8 59 59 S 9 15 30.39 1029 10 16 N/A
11:15 pm 23:15 Clear 59 15 45 7 59 59 S 16 26 30.39 1029 10 16 N/A
11:35 pm 23:35 Clear 59 15 45 7 59 59 S 10 17 30.39 1029 10 16 N/A
11:55 pm 23:55 Clear 59 15 41 5 51 51 S 15 24 30.39 1029 10 16 N/A

Powered by AerisWeather